GW3771 Weather Reports


Display with metric or nautical units.
time (UTC)temp
F
wind
direction
speed
MPH
gust
MPH
rain 1hr
in
rain 24hr
in
rain mn
in
humidity
%
barometer
mb
20260507085038 55 290 1.0 4.0 0.00 0.00 0.00 70 1021.1
20260507084553 55 284 0.0 6.0 0.00 0.00 0.00 71 1021.1
20260507084038 55 0 0.0 6.0 0.00 0.00 0.00 71 1021.0
20260507083537 55 268 1.0 5.0 0.00 0.00 0.00 71 1021.0
20260507083053 55 239 1.0 4.0 0.00 0.00 0.00 71 1021.0
20260507082543 55 232 2.0 7.0 0.00 0.00 0.00 71 1021.0
20260507082042 55 248 1.0 7.0 0.00 0.00 0.00 72 1021.0
20260507081548 55 291 0.0 3.0 0.00 0.00 0.00 72 1021.0
20260507081041 55 271 0.0 4.0 0.00 0.00 0.00 72 1021.0
20260507080538 55 290 1.0 4.0 0.00 0.00 0.00 73 1021.1
20260507080113 55 286 2.0 4.0 0.00 0.00 0.00 74 1021.0
20260507075538 55 226 0.0 2.0 0.00 0.00 0.00 75 1021.0
20260507075038 55 213 0.0 3.0 0.00 0.00 0.00 75 1021.1
20260507074557 55 262 1.0 4.0 0.00 0.00 0.00 75 1021.1
20260507074037 55 0 2.0 5.0 0.00 0.00 0.00 75 1021.1
20260507073539 56 9 1.0 5.0 0.00 0.00 0.00 75 1021.0
20260507073050 56 5 2.0 4.0 0.00 0.00 0.00 75 1021.0
20260507072538 56 317 0.0 4.0 0.00 0.00 0.00 75 1021.0
20260507072042 56 0 1.0 4.0 0.00 0.00 0.00 75 1020.9
20260507071558 56 328 2.0 4.0 0.00 0.00 0.00 76 1021.0
20260507071037 56 335 1.0 4.0 0.00 0.00 0.00 76 1020.9
20260507070538 56 327 1.0 4.0 0.00 0.00 0.00 76 1020.9
20260507070042 56 5 1.0 4.0 0.00 0.00 0.00 77 1020.9
20260507065538 56 5 1.0 4.0 0.00 0.00 0.00 77 1020.9
20260507065038 56 13 0.0 3.0 0.00 0.00 0.00 77 1020.9
20260507064554 56 0 1.0 5.0 0.00 0.00 0.00 76 1020.9
20260507064037 56 17 2.0 5.0 0.00 0.00 0.00 76 1020.9
20260507063537 56 27 2.0 4.0 0.00 0.00 0.00 76 1020.9
20260507063043 56 23 1.0 6.0 0.00 0.00 0.00 76 1020.9
20260507062537 56 16 2.0 6.0 0.00 0.00 0.00 76 1020.9
20260507062038 56 18 2.0 6.0 0.00 0.00 0.00 76 1020.9
20260507061545 57 338 1.0 6.0 0.00 0.00 0.00 76 1021.0
20260507061038 57 352 2.0 6.0 0.00 0.00 0.00 75 1020.9
20260507060537 57 17 0.0 4.0 0.00 0.00 0.00 75 1020.9
20260507060044 57 9 2.0 4.0 0.00 0.00 0.00 76 1021.0
20260507055540 57 13 1.0 3.0 0.00 0.00 0.00 75 1020.9
20260507055037 57 0 0.0 2.0 0.00 0.00 0.00 75 1020.9
20260507054550 57 0 0.0 3.0 0.00 0.00 0.00 74 1020.8
20260507054037 57 352 0.0 3.0 0.00 0.00 0.00 74 1020.9
20260507053538 57 11 1.0 3.0 0.00 0.00 0.00 74 1020.9
20260507053046 58 0 1.0 5.0 0.00 0.00 0.00 74 1020.9
20260507052536 58 22 2.0 5.0 0.00 0.00 0.00 73 1020.7
20260507052039 58 19 1.0 5.0 0.00 0.00 0.00 73 1020.8
20260507051545 58 10 2.0 5.0 0.00 0.00 0.00 73 1020.8
20260507051038 58 13 1.0 5.0 0.00 0.00 0.00 73 1020.9
20260507050537 58 34 2.0 5.0 0.00 0.00 0.00 73 1020.8
20260507050045 58 5 2.0 8.0 0.00 0.00 0.00 72 1020.8
20260507045538 58 36 2.0 10.0 0.00 0.00 0.00 73 1020.8
20260507045038 58 42 3.0 10.0 0.00 0.00 0.00 72 1020.9
20260507044550 59 327 4.0 10.0 0.00 0.00 0.00 72 1020.8
20260507044042 59 352 2.0 8.0 0.00 0.00 0.00 72 1020.8
20260507043537 59 352 2.0 8.0 0.00 0.00 0.00 72 1020.8
20260507043048 59 15 2.0 8.0 0.00 0.00 0.00 72 1020.8
20260507042538 59 352 4.0 8.0 0.00 0.00 0.00 71 1020.7
20260507042037 59 9 3.0 12.0 0.00 0.00 0.00 71 1020.6
20260507041558 60 5 3.0 12.0 0.00 0.00 0.00 71 1020.6
20260507041039 60 11 4.0 8.0 0.00 0.00 0.00 71 1020.6
20260507040538 60 309 2.0 6.0 0.00 0.00 0.00 71 1020.5
20260507040058 60 335 1.0 10.0 0.00 0.00 0.00 71 1020.4
20260507035539 60 11 3.0 11.0 0.00 0.00 0.00 70 1020.4
20260507035038 60 310 5.0 11.0 0.00 0.00 0.00 70 1020.3
20260507034553 61 347 3.0 8.0 0.00 0.00 0.00 70 1020.2
20260507034038 61 309 2.0 9.0 0.00 0.00 0.00 70 1020.1
20260507033538 61 0 3.0 11.0 0.00 0.00 0.00 70 1020.1
20260507033045 61 352 5.0 11.0 0.00 0.00 0.00 70 1020.0
20260507032542 62 27 4.0 9.0 0.00 0.00 0.00 70 1019.9
20260507032037 62 14 4.0 8.0 0.00 0.00 0.00 69 1019.9
20260507031544 62 15 3.0 8.0 0.00 0.00 0.00 69 1019.8
20260507031037 62 321 2.0 7.0 0.00 0.00 0.00 69 1019.8
20260507030538 63 29 1.0 5.0 0.00 0.00 0.00 69 1019.7
20260507030053 63 15 1.0 5.0 0.00 0.00 0.00 69 1019.7
20260507025538 63 9 2.0 5.0 0.00 0.00 0.00 68 1019.7
20260507025037 63 46 1.0 5.0 0.00 0.00 0.00 68 1019.6
20260507024545 63 27 1.0 5.0 0.00 0.00 0.00 68 1019.6
20260507024040 64 51 1.0 5.0 0.00 0.00 0.00 68 1019.5
20260507023538 64 9 2.0 5.0 0.00 0.00 0.00 68 1019.4
20260507023047 64 10 2.0 5.0 0.00 0.00 0.00 67 1019.4
20260507022539 64 38 1.0 4.0 0.00 0.00 0.00 68 1019.4
20260507022038 64 35 2.0 4.0 0.00 0.00 0.00 67 1019.5
20260507021548 64 0 1.0 8.0 0.00 0.00 0.00 67 1019.4
20260507021038 64 13 3.0 8.0 0.00 0.00 0.00 66 1019.4
20260507020539 64 19 3.0 9.0 0.00 0.00 0.00 66 1019.4
20260507020053 65 43 3.0 9.0 0.00 0.00 0.00 65 1019.4
20260507015537 65 350 3.0 10.0 0.00 0.00 0.00 65 1019.4
20260507015037 66 331 5.0 12.0 0.00 0.00 0.00 64 1019.5
20260507014600 66 352 6.0 12.0 0.00 0.00 0.00 63 1019.5
20260507014038 67 329 5.0 11.0 0.00 0.00 0.00 63 1019.5
20260507013540 67 328 4.0 11.0 0.00 0.00 0.00 63 1019.5
20260507013048 67 19 5.0 11.0 0.00 0.00 0.00 63 1019.4
20260507012538 67 346 4.0 11.0 0.00 0.00 0.00 62 1019.4
20260507012038 68 325 5.0 11.0 0.00 0.00 0.00 62 1019.3
20260507011557 68 336 6.0 10.0 0.00 0.00 0.00 62 1019.3
20260507011037 68 13 3.0 9.0 0.00 0.00 0.00 63 1019.2
20260507010537 68 19 5.0 10.0 0.00 0.00 0.00 63 1019.3
20260507010049 69 339 5.0 10.0 0.00 0.00 0.00 62 1019.2
20260507005538 69 35 3.0 9.0 0.00 0.00 0.00 63 1019.3
20260507005041 69 339 5.0 9.0 0.00 0.00 0.00 62 1019.3
20260507004550 69 351 5.0 10.0 0.00 0.00 0.00 61 1019.3
20260507004038 70 5 5.0 12.0 0.00 0.00 0.00 61 1019.3
20260507003542 71 16 4.0 12.0 0.00 0.00 0.00 60 1019.4
20260507003050 71 360 4.0 8.0 0.00 0.00 0.00 57 1019.1
20260507002538 72 336 4.0 8.0 0.00 0.00 0.00 56 1019.1
20260507002038 73 5 2.0 8.0 0.00 0.00 0.00 55 1019.1
20260507001605 73 5 2.0 8.0 0.00 0.00 0.00 54 1019.1
20260507001037 75 32 4.0 8.0 0.00 0.00 0.00 52 1019.1
20260507000544 76 9 2.0 7.0 0.00 0.00 0.00 51 1019.1
20260507000057 77 185 1.0 7.0 0.00 0.00 0.00 51 1018.9
20260506235540 77 234 1.0 6.0 0.00 0.00 0.00 51 1019.0
20260506235038 77 300 1.0 7.0 0.00 0.00 0.00 49 1019.0
20260506234548 77 274 2.0 7.0 0.00 0.00 0.00 49 1019.0
20260506234037 77 241 2.0 7.0 0.00 0.00 0.00 51 1019.1
20260506233538 77 257 3.0 7.0 0.00 0.00 0.00 49 1019.1
20260506233044 77 193 3.0 8.0 0.00 0.00 0.00 50 1019.1
20260506232537 77 190 3.0 8.0 0.00 0.00 0.00 49 1019.1
20260506232038 77 189 1.0 9.0 0.00 0.00 0.00 51 1019.1
20260506231544 77 262 2.0 9.0 0.00 0.00 0.00 50 1019.3
20260506231038 77 0 1.0 6.0 0.00 0.00 0.00 52 1019.2
20260506230541 77 211 2.0 7.0 0.00 0.00 0.00 51 1019.3
20260506230048 77 179 3.0 9.0 0.00 0.00 0.00 50 1019.4
20260506225540 77 119 3.0 9.0 0.00 0.00 0.00 51 1019.4
20260506225040 76 258 2.0 6.0 0.00 0.00 0.00 52 1019.4
20260506224549 76 216 1.0 6.0 0.00 0.00 0.00 54 1019.5
20260506224037 75 169 2.0 10.0 0.00 0.00 0.00 54 1019.5
20260506223538 75 154 4.0 10.0 0.00 0.00 0.00 53 1019.6
20260506223050 75 192 3.0 8.0 0.00 0.00 0.00 55 1019.7
20260506222537 74 148 1.0 9.0 0.00 0.00 0.00 55 1019.7
20260506222037 74 167 3.0 9.0 0.00 0.00 0.00 54 1019.7
20260506221549 73 148 3.0 9.0 0.00 0.00 0.00 56 1019.8
20260506221038 73 184 3.0 8.0 0.00 0.00 0.00 56 1019.8
20260506220538 72 148 2.0 8.0 0.00 0.00 0.00 56 1019.8
20260506220058 72 150 3.0 9.0 0.00 0.00 0.00 56 1019.8
20260506215538 73 153 4.0 10.0 0.00 0.00 0.00 56 1019.8
20260506215041 73 128 2.0 10.0 0.00 0.00 0.00 56 1019.7
20260506214547 73 199 4.0 10.0 0.00 0.00 0.00 56 1019.7
20260506214039 73 78 1.0 8.0 0.00 0.00 0.00 57 1019.7
20260506213538 73 192 3.0 8.0 0.00 0.00 0.00 56 1019.8
20260506213052 72 185 1.0 9.0 0.00 0.00 0.00 58 1019.8
20260506212537 72 82 3.0 9.0 0.00 0.00 0.00 58 1019.9
20260506212037 72 169 1.0 4.0 0.00 0.00 0.00 59 1020.0
20260506211551 71 217 1.0 5.0 0.00 0.00 0.00 60 1020.0
20260506211037 71 257 2.0 8.0 0.00 0.00 0.00 62 1020.0
20260506210540 70 270 1.0 9.0 0.00 0.00 0.00 60 1020.2
20260506210100 70 278 4.0 9.0 0.00 0.00 0.00 60 1020.2
20260506205539 70 244 2.0 7.0 0.00 0.00 0.00 62 1020.2
20260506205041 69 140 2.0 8.0 0.00 0.00 0.00 63 1020.2
20260506204554 69 0 1.0 8.0 0.00 0.00 0.00 63 1020.1
20260506204037 69 136 2.0 7.0 0.00 0.00 0.00 63 1020.1
20260506203540 69 224 3.0 7.0 0.00 0.00 0.00 64 1020.1
20260506203128 68 0 1.0 9.0 0.00 0.00 0.00 65 1019.9
20260506202538 68 87 3.0 9.0 0.00 0.00 0.00 65 1020.0
20260506202041 68 202 2.0 7.0 0.00 0.00 0.00 66 1020.0
20260506201547 68 133 1.0 8.0 0.00 0.00 0.00 66 1020.1
20260506201037 67 79 4.0 8.0 0.00 0.00 0.00 67 1020.2
20260506200537 66 0 1.0 7.0 0.00 0.00 0.00 69 1020.2
20260506200051 66 142 3.0 7.0 0.00 0.00 0.00 68 1020.2
20260506195538 66 148 2.0 4.0 0.00 0.00 0.00 69 1020.3
20260506195038 65 0 1.0 4.0 0.00 0.00 0.00 69 1020.4
20260506194543 65 198 1.0 4.0 0.00 0.00 0.00 70 1020.4
20260506194038 65 181 0.0 4.0 0.00 0.00 0.00 70 1020.6
20260506193537 65 186 0.0 5.0 0.00 0.00 0.00 69 1020.6
20260506193043 65 0 1.0 5.0 0.00 0.00 0.00 69 1020.6
20260506192537 65 321 2.0 5.0 0.00 0.00 0.00 69 1020.6
20260506192040 65 48 1.0 5.0 0.00 0.00 0.00 69 1020.6
20260506191545 65 283 0.0 6.0 0.00 0.00 0.00 70 1020.6
20260506191042 65 0 1.0 6.0 0.00 0.00 0.00 69 1020.6
20260506190538 65 274 1.0 6.0 0.00 0.00 0.00 70 1020.6
20260506190054 64 226 1.0 5.0 0.00 0.00 0.00 70 1020.6
20260506185537 64 121 0.0 4.0 0.00 0.00 0.00 70 1020.7
20260506185037 64 0 1.0 4.0 0.00 0.00 0.00 69 1020.7
20260506184556 64 178 1.0 5.0 0.00 0.00 0.00 70 1020.6
20260506184037 64 279 1.0 6.0 0.00 0.00 0.00 70 1020.5
20260506183538 64 207 2.0 6.0 0.00 0.00 0.00 70 1020.4
20260506183044 64 278 1.0 5.0 0.00 0.00 0.00 71 1020.5
20260506182538 64 244 2.0 5.0 0.00 0.00 0.00 70 1020.6
20260506182039 64 232 1.0 4.0 0.00 0.00 0.00 70 1020.7
20260506181543 64 167 1.0 6.0 0.00 0.00 0.00 71 1020.7
20260506181041 63 132 1.0 7.0 0.00 0.00 0.00 73 1020.7
20260506180538 63 184 3.0 7.0 0.00 0.00 0.00 73 1020.7
20260506180047 62 246 1.0 8.0 0.00 0.00 0.00 74 1020.6
20260506175538 62 260 2.0 8.0 0.00 0.00 0.00 73 1020.6
20260506175043 62 0 2.0 5.0 0.00 0.00 0.00 74 1020.6
20260506174604 61 237 0.0 5.0 0.00 0.00 0.00 75 1020.7
20260506174037 61 160 0.0 6.0 0.00 0.00 0.00 75 1020.7
20260506173539 61 246 1.0 7.0 0.00 0.00 0.00 75 1020.8
20260506173054 61 184 4.0 7.0 0.00 0.00 0.00 75 1020.6
20260506172537 60 150 2.0 7.0 0.00 0.00 0.00 74 1020.4
20260506172039 60 175 2.0 7.0 0.00 0.00 0.00 75 1020.3
20260506171544 60 183 3.0 7.0 0.00 0.00 0.00 76 1020.4
20260506171037 60 185 2.0 7.0 0.00 0.00 0.00 76 1020.5
20260506170539 60 165 3.0 7.0 0.00 0.00 0.00 76 1020.5
20260506170048 60 178 1.0 5.0 0.00 0.00 0.00 77 1020.5
20260506165538 60 173 0.0 3.0 0.00 0.00 0.00 78 1020.5
20260506165041 60 0 0.0 4.0 0.00 0.00 0.00 78 1020.6
20260506164549 60 0 0.0 4.0 0.00 0.00 0.00 79 1020.6
20260506164037 59 177 0.0 4.0 0.00 0.00 0.00 79 1020.5
20260506163538 59 240 0.0 6.0 0.00 0.00 0.00 78 1020.5
20260506163102 59 302 1.0 6.0 0.00 0.00 0.00 78 1020.5
20260506162537 59 224 1.0 6.0 0.00 0.00 0.00 79 1020.5
20260506162037 59 196 2.0 4.0 0.00 0.00 0.00 79 1020.4
20260506161549 59 273 0.0 4.0 0.00 0.00 0.00 80 1020.4
20260506161039 59 194 0.0 4.0 0.00 0.00 0.00 80 1020.4
20260506160538 58 232 0.0 5.0 0.00 0.00 0.00 80 1020.2
20260506160051 58 0 2.0 6.0 0.00 0.00 0.00 80 1020.3
20260506155537 58 220 2.0 6.0 0.00 0.00 0.00 80 1020.0
20260506155038 58 209 1.0 7.0 0.00 0.00 0.00 81 1020.1
20260506154553 58 163 2.0 9.0 0.00 0.00 0.00 81 1020.0
20260506154041 57 140 4.0 9.0 0.00 0.00 0.00 81 1019.6
20260506153538 57 127 3.0 6.0 0.00 0.00 0.00 81 1019.5
20260506153112 57 96 2.0 4.0 0.00 0.00 0.00 81 1019.9
20260506152537 57 130 1.0 2.0 0.00 0.00 0.00 81 1020.2
20260506152037 57 0 0.0 2.0 0.00 0.00 0.00 81 1020.4
20260506151550 57 0 1.0 2.0 0.00 0.00 0.00 81 1020.5
20260506151038 57 0 0.0 2.0 0.00 0.00 0.00 81 1020.6
20260506150537 57 0 0.0 3.0 0.00 0.00 0.00 81 1020.5
20260506150050 57 0 0.0 4.0 0.00 0.00 0.00 81 1020.5
20260506145537 57 158 1.0 4.0 0.00 0.00 0.00 81 1020.5
20260506145037 57 174 2.0 4.0 0.00 0.00 0.00 81 1020.5
20260506144547 57 0 0.0 4.0 0.00 0.00 0.00 81 1020.4
20260506144039 57 183 0.0 4.0 0.00 0.00 0.00 81 1020.2
20260506143538 57 0 0.0 3.0 0.00 0.00 0.00 81 1020.2
20260506143054 57 0 0.0 3.0 0.00 0.00 0.00 81 1020.2
20260506142538 57 0 1.0 4.0 0.00 0.00 0.00 81 1020.0
20260506142037 57 202 0.0 5.0 0.00 0.00 0.00 81 1019.8
20260506141551 57 173 2.0 5.0 0.00 0.00 0.00 81 1019.7
20260506141039 57 164 2.0 5.0 0.00 0.00 0.00 82 1019.5
20260506140542 57 166 0.0 6.0 0.00 0.00 0.00 83 1019.5
20260506140049 57 0 2.0 7.0 0.00 0.00 0.00 83 1019.5
20260506135538 57 65 2.0 7.0 0.00 0.00 0.00 83 1019.4
20260506135039 57 84 3.0 7.0 0.00 0.00 0.00 83 1019.4
20260506134549 57 85 1.0 4.0 0.00 0.00 0.00 83 1019.4
20260506134038 57 0 0.0 5.0 0.00 0.00 0.00 83 1019.2
20260506133538 57 0 0.0 5.0 0.00 0.00 0.00 83 1019.2
20260506133050 57 0 1.0 5.0 0.00 0.00 0.00 83 1019.1
20260506132541 57 0 0.0 2.0 0.00 0.00 0.00 83 1019.1
20260506132037 57 0 0.0 2.0 0.00 0.00 0.00 83 1019.1
20260506131551 57 0 0.0 3.0 0.00 0.00 0.00 83 1018.9
20260506131039 57 0 0.0 4.0 0.00 0.00 0.00 83 1018.8
20260506130538 57 95 0.0 4.0 0.00 0.00 0.00 83 1018.7
20260506130050 57 128 0.0 4.0 0.00 0.00 0.00 83 1018.8
20260506125537 57 0 0.0 3.0 0.00 0.00 0.00 83 1018.8
20260506125037 57 0 0.0 3.0 0.00 0.00 0.00 83 1018.7
20260506124545 57 0 0.0 2.0 0.00 0.00 0.00 83 1018.8
20260506124037 57 146 0.0 1.0 0.00 0.00 0.00 83 1018.6
20260506123537 58 0 0.0 0.0 0.00 0.00 0.00 83 1018.6
20260506123052 58 0 0.0 0.0 0.00 0.00 0.00 83 1018.6
20260506122537 58 0 0.0 0.0 0.00 0.00 0.00 83 1018.7
20260506122037 58 0 0.0 0.0 0.00 0.00 0.00 83 1018.7
20260506121602 58 0 0.0 0.0 0.00 0.00 0.00 83 1018.7
20260506121037 58 0 0.0 2.0 0.00 0.00 0.00 83 1018.7
20260506120537 58 0 0.0 2.0 0.00 0.00 0.00 83 1018.7
20260506120051 58 0 0.0 2.0 0.00 0.00 0.00 83 1018.7
20260506115540 58 175 0.0 0.0 0.00 0.00 0.00 83 1018.7
20260506115038 58 0 0.0 2.0 0.00 0.00 0.00 82 1018.6
20260506114549 58 0 0.0 2.0 0.00 0.00 0.00 82 1018.5
20260506114037 58 0 0.0 2.0 0.00 0.00 0.00 81 1018.4
20260506113540 58 0 0.0 0.0 0.00 0.00 0.00 80 1018.4
20260506113048 58 0 0.0 0.0 0.00 0.00 0.00 80 1018.4
20260506112538 58 0 0.0 0.0 0.00 0.00 0.00 80 1018.4
20260506112039 58 0 0.0 1.0 0.00 0.00 0.00 80 1018.3
20260506111542 58 0 0.0 2.0 0.00 0.00 0.00 80 1018.3
20260506111037 58 0 0.0 2.0 0.00 0.00 0.00 80 1018.3
20260506110539 58 0 0.0 2.0 0.00 0.00 0.00 80 1018.2
20260506110048 58 135 0.0 3.0 0.00 0.00 0.00 80 1018.2
20260506105538 58 0 0.0 3.0 0.00 0.00 0.00 80 1018.1
20260506105037 58 111 0.0 3.0 0.00 0.00 0.00 80 1018.0
20260506104551 58 0 0.0 3.0 0.00 0.00 0.00 80 1018.0
20260506104038 58 0 0.0 3.0 0.00 0.00 0.00 81 1017.9
20260506103538 58 55 0.0 3.0 0.00 0.00 0.00 80 1017.7
20260506103047 58 0 0.0 1.0 0.00 0.00 0.00 81 1017.8
20260506102539 58 0 0.0 3.0 0.00 0.00 0.00 81 1017.7
20260506102041 58 0 0.0 3.0 0.00 0.00 0.00 81 1017.7
20260506101603 59 39 1.0 3.0 0.00 0.00 0.00 81 1017.5
20260506101039 59 116 0.0 2.0 0.00 0.00 0.00 82 1017.5
20260506100539 59 0 0.0 0.0 0.00 0.00 0.00 82 1017.5
20260506100048 59 0 0.0 0.0 0.00 0.00 0.00 82 1017.5
20260506095539 59 0 0.0 2.0 0.00 0.00 0.00 82 1017.5
20260506095039 59 0 0.0 2.0 0.00 0.00 0.00 82 1017.5
20260506094553 59 0 0.0 0.0 0.00 0.00 0.00 82 1017.4
20260506094039 59 0 0.0 0.0 0.00 0.00 0.00 82 1017.3
20260506093543 59 0 0.0 0.0 0.00 0.00 0.00 82 1017.3
20260506093053 59 0 0.0 0.0 0.00 0.00 0.00 81 1017.3
20260506092540 59 0 0.0 0.0 0.00 0.00 0.00 81 1017.3
20260506092040 59 0 0.0 1.0 0.00 0.00 0.00 81 1017.3
20260506091543 59 0 0.0 1.0 0.00 0.00 0.00 81 1017.3
20260506091040 59 0 0.0 1.0 0.00 0.00 0.00 81 1017.2
20260506090540 59 0 0.0 0.0 0.00 0.00 0.00 80 1017.2
20260506090054 59 0 0.0 0.0 0.00 0.00 0.00 80 1017.2
20260506085539 59 0 0.0 0.0 0.00 0.00 0.00 80 1017.2